DLH53 HEGN-LPMA

Flight info

Callsign DLH53
Flight time 6h 34m
Altitude 36000
Route BOTIX1B BOTIX V608 NABED T55 KUNKI P751 TAKRI N710 KIVIL L613 MMA M855 LOSUL P128 LAB M979 INDOT/N0514F300 M622 GZO M980 DEXOL M726 NEVNA L30 OMENI/N0484F380 UL874 DIMAO UZ888 BABOR UA31 BNA UZ444 DAHRA UA411 MOS UM744 CARBO M744 SVL/N0487F390 N747 MINTA/N0467F230 UN747 NARTA UN975 RAKUN
Aircraft A35K/H-SDE2E3GHIJ3J4J5LM1ORWXY/LB1D1

Departure

Time 2026-05-06 13:30
Airport Hurghada International Airport (HEGN)

Arrival

Time 2026-05-06 20:04
Airport Cristiano Ronaldo International Airport (LPMA)
Time Latitude Longitude Altitude Speed Heading
2026-05-06 12:58 27.17706 33.80658 64 ft 0 kts 75°
2026-05-06 12:58 27.17707 33.80663 64 ft 0 kts 75°
2026-05-06 13:19 27.17706 33.80657 64 ft 3 kts 75°
2026-05-06 13:20 27.17699 33.80628 72 ft 4 kts 75°
2026-05-06 13:20 27.17693 33.80605 47 ft 4 kts 74°
2026-05-06 13:20 27.17688 33.80578 55 ft 4 kts 110°
2026-05-06 13:20 27.17701 33.80568 55 ft 4 kts 164°
2026-05-06 13:21 27.17722 33.80561 55 ft 0 kts 165°
2026-05-06 13:23 27.17711 33.80565 59 ft 4 kts 165°
2026-05-06 13:24 27.17661 33.80580 56 ft 11 kts 165°
2026-05-06 13:24 27.17566 33.80608 55 ft 16 kts 165°
2026-05-06 13:24 27.17481 33.80557 59 ft 16 kts 253°
2026-05-06 13:24 27.17447 33.80419 56 ft 24 kts 255°
2026-05-06 13:25 27.17399 33.80212 52 ft 30 kts 255°
2026-05-06 13:25 27.17341 33.79971 56 ft 34 kts 255°
2026-05-06 13:25 27.17282 33.79723 91 ft 30 kts 255°
2026-05-06 13:25 27.17227 33.79532 107 ft 20 kts 226°
2026-05-06 13:26 27.17102 33.79529 109 ft 18 kts 165°
2026-05-06 13:26 27.16980 33.79565 111 ft 18 kts 165°
2026-05-06 13:26 27.16852 33.79602 109 ft 20 kts 165°
2026-05-06 13:26 27.16707 33.79645 109 ft 22 kts 165°
2026-05-06 13:27 27.16557 33.79689 111 ft 22 kts 165°
2026-05-06 13:27 27.16404 33.79734 113 ft 23 kts 165°
2026-05-06 13:27 27.16254 33.79779 118 ft 22 kts 165°
2026-05-06 13:27 27.16102 33.79825 120 ft 23 kts 165°
2026-05-06 13:28 27.15965 33.79847 121 ft 16 kts 205°
2026-05-06 13:28 27.15913 33.79742 125 ft 16 kts 255°
2026-05-06 13:28 27.15970 33.79667 121 ft 15 kts 345°
2026-05-06 13:28 27.15987 33.79662 120 ft 1 kts 345°
2026-05-06 13:29 27.15997 33.79658 121 ft 2 kts 345°
2026-05-06 13:29 27.16017 33.79652 121 ft 4 kts 345°
2026-05-06 13:29 27.16075 33.79635 121 ft 23 kts 345°
2026-05-06 13:29 27.16448 33.79523 116 ft 87 kts 345°
2026-05-06 13:30 27.17220 33.79296 111 ft 141 kts 345°
2026-05-06 13:30 27.18311 33.78977 279 ft 173 kts 345°
2026-05-06 13:30 27.19493 33.78611 808 ft 181 kts 345°
2026-05-06 13:30 27.20707 33.78234 1548 ft 180 kts 347°
2026-05-06 13:31 27.21939 33.77902 2185 ft 185 kts 347°
2026-05-06 13:31 27.23211 33.77587 2802 ft 191 kts 347°
2026-05-06 13:31 27.24572 33.77287 3171 ft 207 kts 348°
2026-05-06 13:31 27.26036 33.76945 3523 ft 222 kts 345°
2026-05-06 13:32 27.27609 33.76534 3797 ft 243 kts 343°
2026-05-06 13:32 27.29281 33.76074 4263 ft 255 kts 341°
2026-05-06 13:32 27.30924 33.75288 4934 ft 254 kts 323°
2026-05-06 13:32 27.32147 33.73911 5556 ft 253 kts 300°
2026-05-06 13:33 27.32768 33.72083 6242 ft 254 kts 279°
2026-05-06 13:33 27.32693 33.70067 6726 ft 263 kts 257°
2026-05-06 13:33 27.32146 33.68104 7426 ft 264 kts 252°
2026-05-06 13:33 27.31538 33.66139 7853 ft 267 kts 252°
2026-05-06 13:34 27.30936 33.64169 7984 ft 267 kts 252°
2026-05-06 13:34 27.30340 33.62189 7987 ft 268 kts 252°
2026-05-06 13:34 27.29746 33.60202 7987 ft 268 kts 252°
2026-05-06 13:34 27.29155 33.58211 7989 ft 268 kts 252°
2026-05-06 13:35 27.28566 33.56224 7992 ft 269 kts 252°
2026-05-06 13:35 27.27976 33.54230 7990 ft 268 kts 252°
2026-05-06 13:35 27.27384 33.52230 7994 ft 270 kts 252°
2026-05-06 13:35 27.26790 33.50225 7992 ft 270 kts 252°
2026-05-06 13:36 27.26200 33.48229 7993 ft 269 kts 252°
2026-05-06 13:36 27.25611 33.46227 8266 ft 270 kts 252°
2026-05-06 13:36 27.25019 33.44222 8974 ft 271 kts 252°
2026-05-06 13:36 27.24421 33.42200 9715 ft 275 kts 252°
2026-05-06 13:37 27.23814 33.40148 10357 ft 281 kts 252°
2026-05-06 13:37 27.23179 33.37998 10669 ft 299 kts 252°
2026-05-06 13:37 27.22504 33.35713 10950 ft 316 kts 253°
2026-05-06 13:37 27.21952 33.33262 11214 ft 331 kts 262°
2026-05-06 13:38 27.21846 33.30628 11500 ft 344 kts 271°
2026-05-06 13:38 27.21970 33.27893 11702 ft 359 kts 274°
2026-05-06 13:38 27.22221 33.25053 11997 ft 369 kts 276°
2026-05-06 13:38 27.22517 33.22153 12335 ft 378 kts 276°
2026-05-06 13:39 27.22716 33.20204 12697 ft 380 kts 276°
2026-05-06 13:39 27.23007 33.17245 13288 ft 381 kts 276°
2026-05-06 13:39 27.23280 33.14267 13770 ft 386 kts 275°
2026-05-06 13:39 27.23540 33.11249 14146 ft 391 kts 275°
2026-05-06 13:40 27.23875 33.07163 14793 ft 393 kts 275°
2026-05-06 13:40 27.24038 33.05138 15135 ft 394 kts 275°
2026-05-06 13:40 27.24284 33.02064 15661 ft 396 kts 275°
2026-05-06 13:40 27.24531 32.98972 16140 ft 398 kts 275°
2026-05-06 13:41 27.24779 32.95864 16638 ft 400 kts 275°
2026-05-06 13:41 27.25029 32.92738 17125 ft 403 kts 275°
2026-05-06 13:41 27.25280 32.89597 17596 ft 405 kts 275°
2026-05-06 13:41 27.25532 32.86436 18123 ft 406 kts 275°
2026-05-06 13:42 27.25784 32.83279 18627 ft 407 kts 275°
2026-05-06 13:42 27.26037 32.80099 19077 ft 409 kts 275°
2026-05-06 13:42 27.26289 32.76915 19503 ft 412 kts 275°
2026-05-06 13:42 27.26543 32.73697 19950 ft 414 kts 274°
2026-05-06 13:43 27.26797 32.70463 20430 ft 416 kts 274°
2026-05-06 13:43 27.27052 32.67212 20887 ft 419 kts 274°
2026-05-06 13:43 27.27307 32.63949 21366 ft 421 kts 274°
2026-05-06 13:43 27.27560 32.60703 21828 ft 424 kts 275°
2026-05-06 13:44 27.27821 32.57347 22301 ft 426 kts 275°
2026-05-06 13:44 27.28079 32.54024 22772 ft 429 kts 275°
2026-05-06 13:44 27.28338 32.50673 23279 ft 431 kts 275°
2026-05-06 13:44 27.28597 32.47307 23742 ft 434 kts 275°
2026-05-06 13:45 27.28858 32.43916 24190 ft 436 kts 275°
2026-05-06 13:45 27.29375 32.37152 25151 ft 439 kts 275°
2026-05-06 13:45 27.29723 32.33743 25617 ft 440 kts 279°
2026-05-06 13:46 27.30419 32.30383 26079 ft 443 kts 286°
2026-05-06 13:46 27.31545 32.27126 26548 ft 446 kts 294°
2026-05-06 13:46 27.33116 32.24080 27019 ft 449 kts 302°
2026-05-06 13:46 27.34930 32.21205 27457 ft 452 kts 304°
2026-05-06 13:47 27.36836 32.18380 27913 ft 454 kts 306°
2026-05-06 13:47 27.38783 32.15578 28373 ft 456 kts 306°
2026-05-06 13:47 27.40748 32.12770 28772 ft 458 kts 306°
2026-05-06 13:47 27.42717 32.09946 29157 ft 460 kts 306°
2026-05-06 13:48 27.44662 32.07140 29559 ft 461 kts 305°
2026-05-06 13:48 27.46626 32.04286 30024 ft 461 kts 305°
2026-05-06 13:48 27.48580 32.01435 30545 ft 458 kts 305°
2026-05-06 13:48 27.50516 31.98601 31019 ft 455 kts 304°
2026-05-06 13:49 27.52442 31.95776 31478 ft 453 kts 304°
2026-05-06 13:49 27.54357 31.92964 31921 ft 452 kts 304°
2026-05-06 13:49 27.56263 31.90164 32355 ft 450 kts 304°
2026-05-06 13:49 27.58161 31.87374 32781 ft 448 kts 304°
2026-05-06 13:50 27.60055 31.84589 33204 ft 446 kts 304°
2026-05-06 13:50 27.61936 31.81822 33592 ft 444 kts 304°
2026-05-06 13:50 27.63812 31.79061 33990 ft 443 kts 304°
2026-05-06 13:50 27.65680 31.76308 34319 ft 441 kts 304°
2026-05-06 13:51 27.67543 31.73563 34585 ft 441 kts 304°
2026-05-06 13:51 27.69406 31.70814 34833 ft 441 kts 304°
2026-05-06 13:51 27.71270 31.68062 35076 ft 441 kts 303°
2026-05-06 13:51 27.73130 31.65316 35320 ft 440 kts 303°
2026-05-06 13:52 27.74989 31.62570 35570 ft 440 kts 303°
2026-05-06 13:52 27.76846 31.59825 35816 ft 440 kts 303°
2026-05-06 13:52 27.78698 31.57085 36010 ft 440 kts 303°
2026-05-06 13:52 27.80560 31.54328 36077 ft 443 kts 303°
2026-05-06 13:53 27.84320 31.48752 36085 ft 446 kts 303°
2026-05-06 13:53 27.88076 31.43184 36102 ft 446 kts 303°
2026-05-06 13:54 27.91832 31.37605 36092 ft 446 kts 303°
2026-05-06 13:54 27.95584 31.32025 36075 ft 446 kts 303°
2026-05-06 13:55 27.99335 31.26438 36091 ft 446 kts 303°
2026-05-06 13:55 28.03081 31.20851 36087 ft 446 kts 303°
2026-05-06 13:56 28.06824 31.15264 36087 ft 445 kts 303°
2026-05-06 13:56 28.10422 31.09566 36087 ft 444 kts 300°
2026-05-06 13:57 28.13789 31.03708 36090 ft 443 kts 300°
2026-05-06 13:57 28.17135 30.97893 36092 ft 444 kts 300°
2026-05-06 13:58 28.20543 30.92062 36093 ft 444 kts 300°
2026-05-06 13:58 28.23968 30.86240 36093 ft 444 kts 300°
2026-05-06 13:59 28.27396 30.80410 36090 ft 444 kts 300°
2026-05-06 13:59 28.30818 30.74578 36112 ft 444 kts 300°
2026-05-06 14:00 28.34238 30.68738 36091 ft 444 kts 300°
2026-05-06 14:00 28.37650 30.62904 36091 ft 444 kts 300°
2026-05-06 14:01 28.41068 30.57052 36086 ft 444 kts 300°
2026-05-06 14:01 28.44481 30.51198 36089 ft 444 kts 300°
2026-05-06 14:02 28.47891 30.45345 36089 ft 444 kts 300°
2026-05-06 14:02 28.51301 30.39482 36095 ft 444 kts 300°
2026-05-06 14:03 28.54707 30.33618 36085 ft 444 kts 300°
2026-05-06 14:03 28.58109 30.27753 36086 ft 444 kts 300°
2026-05-06 14:04 28.61510 30.21881 36086 ft 444 kts 300°
2026-05-06 14:04 28.64951 30.15931 36083 ft 444 kts 300°
2026-05-06 14:05 28.68348 30.10050 36089 ft 444 kts 300°
2026-05-06 14:05 28.71740 30.04170 36078 ft 444 kts 300°
2026-05-06 14:06 28.75131 29.98281 36097 ft 444 kts 300°
2026-05-06 14:06 28.78520 29.92388 36072 ft 445 kts 300°
2026-05-06 14:07 28.81908 29.86491 36072 ft 445 kts 300°
2026-05-06 14:07 28.85294 29.80588 36069 ft 445 kts 300°
2026-05-06 14:08 28.88678 29.74679 36069 ft 445 kts 300°
2026-05-06 14:08 28.92063 29.68760 36064 ft 445 kts 300°
2026-05-06 14:09 28.95447 29.62834 36064 ft 445 kts 300°
2026-05-06 14:09 28.98826 29.56910 36065 ft 445 kts 300°
2026-05-06 14:10 29.02200 29.50985 36066 ft 445 kts 300°
2026-05-06 14:10 29.05578 29.45045 36064 ft 446 kts 300°
2026-05-06 14:11 29.08950 29.39107 36063 ft 446 kts 300°
2026-05-06 14:11 29.12638 29.33387 36060 ft 450 kts 309°
2026-05-06 14:12 29.17390 29.28652 36080 ft 456 kts 317°
2026-05-06 14:12 29.22414 29.24269 36065 ft 457 kts 318°
2026-05-06 14:13 29.27516 29.19903 36064 ft 458 kts 318°
2026-05-06 14:13 29.32607 29.15516 36063 ft 458 kts 318°
2026-05-06 14:14 29.37689 29.11105 36065 ft 458 kts 318°
2026-05-06 14:14 29.42438 29.06317 36064 ft 451 kts 307°
2026-05-06 14:15 29.46413 29.00770 36067 ft 450 kts 304°
2026-05-06 14:15 29.50246 28.95097 36077 ft 449 kts 304°
2026-05-06 14:16 29.54061 28.89398 36071 ft 451 kts 304°
2026-05-06 14:16 29.57896 28.83692 36068 ft 451 kts 304°
2026-05-06 14:17 29.61741 28.77984 36069 ft 451 kts 304°
2026-05-06 14:17 29.65998 28.72647 36073 ft 457 kts 316°
2026-05-06 14:18 29.70962 28.68035 36072 ft 459 kts 317°
2026-05-06 14:18 29.76038 28.63548 36083 ft 460 kts 318°
2026-05-06 14:19 29.81124 28.59070 36066 ft 460 kts 318°
2026-05-06 14:19 29.86168 28.54600 36081 ft 460 kts 318°
2026-05-06 14:20 29.91235 28.50088 36077 ft 460 kts 318°
2026-05-06 14:20 29.96305 28.45563 36077 ft 460 kts 318°
2026-05-06 14:21 30.01368 28.41040 36085 ft 460 kts 318°
2026-05-06 14:21 30.05577 28.37276 36086 ft 460 kts 318°
2026-05-06 14:22 30.10639 28.32742 36089 ft 461 kts 318°
2026-05-06 14:22 30.15714 28.28193 36094 ft 462 kts 318°
2026-05-06 14:23 30.20783 28.23643 36093 ft 462 kts 318°
2026-05-06 14:23 30.25856 28.19082 36098 ft 462 kts 318°
2026-05-06 14:24 30.30923 28.14521 36100 ft 462 kts 318°
2026-05-06 14:24 30.35992 28.09952 36099 ft 462 kts 318°
2026-05-06 14:25 30.41055 28.05381 36101 ft 462 kts 318°
2026-05-06 14:25 30.46128 28.00796 36098 ft 463 kts 318°
2026-05-06 14:26 30.51200 27.96205 36109 ft 462 kts 318°
2026-05-06 14:26 30.56268 27.91613 36108 ft 462 kts 318°
2026-05-06 14:27 30.61332 27.87018 36110 ft 462 kts 318°
2026-05-06 14:27 30.66397 27.82415 36116 ft 462 kts 318°
2026-05-06 14:28 30.71458 27.77809 36114 ft 462 kts 318°
2026-05-06 14:28 30.76520 27.73196 36122 ft 462 kts 318°
2026-05-06 14:29 30.81577 27.68582 36139 ft 462 kts 318°
2026-05-06 14:29 30.86629 27.63966 36131 ft 462 kts 318°
2026-05-06 14:30 30.91678 27.59346 36134 ft 461 kts 318°
2026-05-06 14:30 30.96722 27.54724 36135 ft 461 kts 318°
2026-05-06 14:31 31.01768 27.50094 36135 ft 461 kts 318°
2026-05-06 14:31 31.06809 27.45463 36145 ft 462 kts 318°
2026-05-06 14:32 31.11860 27.40815 36164 ft 462 kts 318°
2026-05-06 14:32 31.16904 27.36167 36155 ft 462 kts 318°
2026-05-06 14:33 31.21944 27.31517 36158 ft 462 kts 318°
2026-05-06 14:33 31.26948 27.26830 36155 ft 460 kts 315°
2026-05-06 14:34 31.31094 27.21232 36157 ft 453 kts 300°
2026-05-06 14:34 31.33632 27.14553 36155 ft 450 kts 285°
2026-05-06 14:35 31.35249 27.07458 36153 ft 451 kts 283°
2026-05-06 14:35 31.36726 27.00322 36151 ft 452 kts 283°
2026-05-06 14:36 31.38212 26.93174 36149 ft 452 kts 283°
2026-05-06 14:36 31.39719 26.86039 36140 ft 452 kts 283°
2026-05-06 14:37 31.41226 26.78941 36149 ft 452 kts 283°
2026-05-06 14:37 31.42749 26.71746 36146 ft 452 kts 283°
2026-05-06 14:38 31.44259 26.64590 36147 ft 453 kts 283°
2026-05-06 14:38 31.45764 26.57432 36137 ft 453 kts 283°
2026-05-06 14:39 31.47254 26.50320 36141 ft 453 kts 283°
2026-05-06 14:39 31.48755 26.43138 36134 ft 454 kts 283°
2026-05-06 14:40 31.50251 26.35959 36140 ft 454 kts 283°
2026-05-06 14:40 31.51745 26.28769 36129 ft 454 kts 283°
2026-05-06 14:41 31.53233 26.21584 36139 ft 454 kts 283°
2026-05-06 14:41 31.54719 26.14387 36122 ft 454 kts 283°
2026-05-06 14:42 31.56201 26.07186 36128 ft 454 kts 283°
2026-05-06 14:42 31.57584 25.99966 36118 ft 454 kts 279°
2026-05-06 14:43 31.58578 25.92658 36118 ft 454 kts 278°
2026-05-06 14:43 31.59502 25.85332 36127 ft 454 kts 278°
2026-05-06 14:44 31.60412 25.78001 36117 ft 454 kts 278°
2026-05-06 14:45 31.61779 25.67004 36117 ft 454 kts 278°
2026-05-06 14:45 31.62689 25.59675 36115 ft 454 kts 278°
2026-05-06 14:46 31.63594 25.52345 36114 ft 454 kts 278°
2026-05-06 14:46 31.64497 25.45006 36111 ft 454 kts 278°
2026-05-06 14:47 31.65394 25.37667 36113 ft 455 kts 278°
2026-05-06 14:47 31.66289 25.30316 36118 ft 455 kts 278°
2026-05-06 14:48 31.67177 25.22979 36114 ft 455 kts 278°
2026-05-06 14:48 31.68120 25.15642 36114 ft 455 kts 282°
2026-05-06 14:49 31.70087 25.08590 36111 ft 455 kts 291°
2026-05-06 14:49 31.72546 25.01733 36112 ft 456 kts 292°
2026-05-06 14:50 31.75081 24.94906 36109 ft 456 kts 292°
2026-05-06 14:50 31.77603 24.88076 36110 ft 456 kts 292°
2026-05-06 14:51 31.80110 24.81230 36112 ft 456 kts 292°
2026-05-06 14:51 31.82605 24.74382 36108 ft 456 kts 292°
2026-05-06 14:52 31.85097 24.67526 36110 ft 456 kts 292°
2026-05-06 14:52 31.87584 24.60671 36107 ft 456 kts 292°
2026-05-06 14:53 31.90068 24.53813 36110 ft 456 kts 292°
2026-05-06 14:53 31.92552 24.46943 36111 ft 456 kts 292°
2026-05-06 14:54 31.95013 24.40121 36108 ft 456 kts 292°
2026-05-06 14:54 31.97484 24.33256 36105 ft 455 kts 292°
2026-05-06 14:55 31.99953 24.26384 36111 ft 455 kts 292°
2026-05-06 14:55 32.02419 24.19509 36107 ft 455 kts 292°
2026-05-06 14:56 32.04880 24.12630 36106 ft 455 kts 292°
2026-05-06 14:56 32.07335 24.05756 36106 ft 455 kts 292°
2026-05-06 14:57 32.09786 23.98877 36103 ft 455 kts 292°
2026-05-06 14:57 32.12234 23.91997 36106 ft 455 kts 292°
2026-05-06 14:58 32.14677 23.85111 36106 ft 455 kts 292°
2026-05-06 14:58 32.17115 23.78226 36103 ft 455 kts 292°
2026-05-06 14:59 32.19549 23.71341 36105 ft 454 kts 292°
2026-05-06 14:59 32.21979 23.64449 36105 ft 454 kts 292°
2026-05-06 15:00 32.24405 23.57558 36106 ft 454 kts 292°
2026-05-06 15:00 32.26824 23.50666 36108 ft 454 kts 292°
2026-05-06 15:01 32.29242 23.43772 36103 ft 454 kts 291°
2026-05-06 15:01 32.31656 23.36870 36102 ft 454 kts 291°
2026-05-06 15:02 32.34066 23.29965 36102 ft 454 kts 291°
2026-05-06 15:02 32.36473 23.23056 36102 ft 454 kts 291°
2026-05-06 15:03 32.38876 23.16144 36102 ft 454 kts 291°
2026-05-06 15:03 32.41274 23.09229 36101 ft 454 kts 291°
2026-05-06 15:04 32.43671 23.02305 36103 ft 454 kts 291°
2026-05-06 15:04 32.45660 22.96548 36102 ft 454 kts 291°
2026-05-06 15:05 32.48047 22.89624 36101 ft 454 kts 291°
2026-05-06 15:05 32.50434 22.82688 36098 ft 454 kts 291°
2026-05-06 15:06 32.52813 22.75757 36102 ft 454 kts 291°
2026-05-06 15:06 32.55189 22.68822 36099 ft 454 kts 291°
2026-05-06 15:07 32.57562 22.61884 36098 ft 454 kts 291°
2026-05-06 15:07 32.59931 22.54937 36097 ft 454 kts 291°
2026-05-06 15:08 32.62294 22.47995 36098 ft 454 kts 291°
2026-05-06 15:08 32.64653 22.41050 36094 ft 453 kts 291°
2026-05-06 15:09 32.67003 22.34118 36094 ft 452 kts 291°
2026-05-06 15:09 32.69350 22.27178 36097 ft 453 kts 291°
2026-05-06 15:10 32.71694 22.20231 36097 ft 453 kts 291°
2026-05-06 15:10 32.74035 22.13281 36097 ft 453 kts 291°
2026-05-06 15:11 32.76382 22.06295 36092 ft 451 kts 291°
2026-05-06 15:11 32.78704 21.99420 36094 ft 451 kts 292°
2026-05-06 15:12 32.81219 21.92590 36095 ft 451 kts 294°
2026-05-06 15:12 32.83786 21.85787 36094 ft 451 kts 294°
2026-05-06 15:13 32.86326 21.78966 36094 ft 451 kts 294°
2026-05-06 15:13 32.88830 21.72162 36094 ft 448 kts 294°
2026-05-06 15:14 32.91318 21.65373 36099 ft 447 kts 294°
2026-05-06 15:14 32.93796 21.58598 36096 ft 447 kts 294°
2026-05-06 15:15 32.96277 21.51805 36093 ft 447 kts 294°
2026-05-06 15:15 32.98751 21.45015 36095 ft 447 kts 294°
2026-05-06 15:16 33.01224 21.38218 36091 ft 447 kts 294°
2026-05-06 15:16 33.03690 21.31425 36091 ft 447 kts 294°
2026-05-06 15:17 33.06154 21.24622 36091 ft 447 kts 294°
2026-05-06 15:17 33.08612 21.17822 36091 ft 447 kts 293°
2026-05-06 15:18 33.11068 21.11013 36093 ft 446 kts 294°
2026-05-06 15:18 33.13507 21.04240 36094 ft 443 kts 294°
2026-05-06 15:19 33.15935 20.97483 36091 ft 443 kts 294°
2026-05-06 15:19 33.18359 20.90725 36099 ft 443 kts 293°
2026-05-06 15:20 33.20793 20.83925 36091 ft 446 kts 293°
2026-05-06 15:20 33.23225 20.77107 36091 ft 446 kts 293°
2026-05-06 15:21 33.25644 20.70316 36087 ft 444 kts 293°
2026-05-06 15:21 33.28058 20.63525 36092 ft 444 kts 293°
2026-05-06 15:22 33.30468 20.56734 36090 ft 444 kts 293°
2026-05-06 15:22 33.32858 20.49985 36088 ft 444 kts 293°
2026-05-06 15:23 33.35256 20.43198 36085 ft 441 kts 293°
2026-05-06 15:23 33.37634 20.36453 36086 ft 439 kts 293°
2026-05-06 15:24 33.40003 20.29723 36083 ft 439 kts 293°
2026-05-06 15:24 33.42366 20.22994 36083 ft 438 kts 293°
2026-05-06 15:25 33.44724 20.16265 36082 ft 438 kts 293°
2026-05-06 15:25 33.47077 20.09536 36082 ft 437 kts 293°
2026-05-06 15:26 33.49411 20.02845 36081 ft 435 kts 293°
2026-05-06 15:26 33.51738 19.96163 36080 ft 434 kts 293°
2026-05-06 15:27 33.54060 19.89482 36080 ft 434 kts 293°
2026-05-06 15:27 33.56366 19.82835 36080 ft 434 kts 293°
2026-05-06 15:28 33.58679 19.76150 36075 ft 432 kts 293°
2026-05-06 15:28 33.60968 19.69521 36075 ft 429 kts 293°
2026-05-06 15:29 33.63250 19.62900 36072 ft 429 kts 293°
2026-05-06 15:29 33.65525 19.56285 36072 ft 429 kts 293°
2026-05-06 15:30 33.67807 19.49651 36075 ft 432 kts 293°
2026-05-06 15:30 33.70102 19.42946 36074 ft 433 kts 293°
2026-05-06 15:31 33.72361 19.36280 36070 ft 429 kts 291°
2026-05-06 15:31 33.74210 19.29464 36069 ft 430 kts 288°
2026-05-06 15:32 33.76756 19.19132 36067 ft 430 kts 288°
2026-05-06 15:32 33.78521 19.12277 36067 ft 429 kts 289°
2026-05-06 15:33 33.80299 19.05481 36066 ft 427 kts 289°
2026-05-06 15:33 33.82076 18.98687 36066 ft 426 kts 289°
2026-05-06 15:34 33.83846 18.91893 36058 ft 426 kts 288°
2026-05-06 15:34 33.85613 18.85088 36059 ft 426 kts 288°
2026-05-06 15:35 33.87373 18.78290 36059 ft 426 kts 288°
2026-05-06 15:35 33.89126 18.71502 36060 ft 423 kts 288°
2026-05-06 15:36 33.90865 18.64752 36056 ft 422 kts 288°
2026-05-06 15:36 33.92601 18.57995 36056 ft 422 kts 288°
2026-05-06 15:37 33.94331 18.51245 36051 ft 422 kts 288°
2026-05-06 15:37 33.96059 18.44484 36051 ft 422 kts 288°
2026-05-06 15:38 33.97778 18.37745 36060 ft 422 kts 288°
2026-05-06 15:38 33.99498 18.30980 36055 ft 422 kts 288°
2026-05-06 15:39 34.01214 18.24220 36060 ft 422 kts 288°
2026-05-06 15:39 34.02930 18.17464 36051 ft 422 kts 288°
2026-05-06 15:40 34.04647 18.10695 36037 ft 422 kts 288°
2026-05-06 15:40 34.06346 18.03973 36036 ft 422 kts 288°
2026-05-06 15:41 34.08054 17.97200 36051 ft 422 kts 288°
2026-05-06 15:41 34.09758 17.90428 36035 ft 422 kts 288°
2026-05-06 15:42 34.11470 17.83603 36026 ft 422 kts 288°
2026-05-06 15:42 34.13166 17.76826 36036 ft 422 kts 288°
2026-05-06 15:43 34.14857 17.70047 36033 ft 422 kts 288°
2026-05-06 15:43 34.16545 17.63268 36033 ft 421 kts 288°
2026-05-06 15:44 34.18228 17.56491 36030 ft 421 kts 287°
2026-05-06 15:44 34.19905 17.49715 36021 ft 421 kts 287°
2026-05-06 15:45 34.21581 17.42932 36021 ft 421 kts 287°
2026-05-06 15:45 34.23254 17.36141 36022 ft 422 kts 287°
2026-05-06 15:46 34.24652 17.30452 36019 ft 422 kts 287°
2026-05-06 15:46 34.26309 17.23692 36017 ft 422 kts 287°
2026-05-06 15:47 34.27975 17.16880 36016 ft 423 kts 287°
2026-05-06 15:47 34.29645 17.10032 36019 ft 425 kts 287°
2026-05-06 15:48 34.31314 17.03167 36001 ft 426 kts 287°
2026-05-06 15:48 34.33203 16.96384 36010 ft 426 kts 294°
2026-05-06 15:49 34.36277 16.90256 36005 ft 428 kts 304°
2026-05-06 15:49 34.39891 16.84523 36004 ft 429 kts 306°
2026-05-06 15:50 34.43586 16.78848 36003 ft 429 kts 306°
2026-05-06 15:50 34.47273 16.73160 36008 ft 429 kts 306°
2026-05-06 15:51 34.50942 16.67455 36001 ft 428 kts 305°
2026-05-06 15:51 34.54587 16.61761 36000 ft 427 kts 305°
2026-05-06 15:52 34.58221 16.56073 35996 ft 426 kts 305°
2026-05-06 15:52 34.61853 16.50380 36004 ft 426 kts 305°
2026-05-06 15:53 34.65499 16.44658 35999 ft 430 kts 305°
2026-05-06 15:53 34.69163 16.38898 35997 ft 431 kts 305°
2026-05-06 15:54 34.72830 16.33125 35989 ft 431 kts 304°
2026-05-06 15:54 34.76488 16.27356 35991 ft 430 kts 304°
2026-05-06 15:55 34.80140 16.21589 35991 ft 430 kts 304°
2026-05-06 15:55 34.83786 16.15821 35997 ft 430 kts 304°
2026-05-06 15:56 34.87431 16.10045 35998 ft 430 kts 304°
2026-05-06 15:56 34.91069 16.04269 36001 ft 430 kts 304°
2026-05-06 15:57 34.94681 15.98528 35996 ft 430 kts 304°
2026-05-06 15:57 34.98309 15.92750 35979 ft 429 kts 304°
2026-05-06 15:58 35.01929 15.86973 35996 ft 428 kts 304°
2026-05-06 15:58 35.05544 15.81198 35984 ft 428 kts 304°
2026-05-06 15:59 35.09159 15.75412 35969 ft 428 kts 304°
2026-05-06 15:59 35.12769 15.69624 35968 ft 428 kts 304°
2026-05-06 16:00 35.16375 15.63835 35969 ft 428 kts 303°
2026-05-06 16:00 35.19980 15.58038 35981 ft 428 kts 303°
2026-05-06 16:01 35.23585 15.52228 35970 ft 429 kts 303°
2026-05-06 16:01 35.27203 15.46389 35966 ft 433 kts 303°
2026-05-06 16:02 35.30841 15.40507 35966 ft 434 kts 303°
2026-05-06 16:02 35.34484 15.34611 35958 ft 434 kts 303°
2026-05-06 16:03 35.38125 15.28707 35965 ft 434 kts 303°
2026-05-06 16:03 35.41760 15.22803 35964 ft 434 kts 303°
2026-05-06 16:04 35.45393 15.16889 35953 ft 434 kts 303°
2026-05-06 16:04 35.49022 15.10974 35952 ft 434 kts 303°
2026-05-06 16:05 35.52652 15.05046 35946 ft 434 kts 303°
2026-05-06 16:05 35.56250 14.99160 35955 ft 434 kts 303°
2026-05-06 16:06 35.59889 14.93195 35947 ft 438 kts 303°
2026-05-06 16:06 35.63548 14.87192 35941 ft 439 kts 303°
2026-05-06 16:07 35.67202 14.81186 35944 ft 439 kts 303°
2026-05-06 16:07 35.70853 14.75174 35950 ft 439 kts 303°
2026-05-06 16:08 35.74504 14.69150 35957 ft 439 kts 303°
2026-05-06 16:08 35.78149 14.63127 35959 ft 439 kts 303°
2026-05-06 16:09 35.81840 14.57016 35966 ft 439 kts 303°
2026-05-06 16:09 35.85485 14.50970 35965 ft 439 kts 303°
2026-05-06 16:10 35.89133 14.44909 35932 ft 443 kts 303°
2026-05-06 16:10 35.92806 14.38794 35930 ft 444 kts 303°
2026-05-06 16:11 35.96481 14.32667 35919 ft 444 kts 303°
2026-05-06 16:11 36.00031 14.26501 35926 ft 442 kts 297°
2026-05-06 16:12 36.02451 14.19609 35922 ft 436 kts 283°
2026-05-06 16:12 36.03156 14.12241 35922 ft 433 kts 267°
2026-05-06 16:13 36.02761 14.04823 35912 ft 433 kts 265°
2026-05-06 16:13 36.02209 13.97415 35908 ft 433 kts 265°
2026-05-06 16:14 36.01659 13.90004 35902 ft 433 kts 265°
2026-05-06 16:14 36.01131 13.82594 35901 ft 433 kts 265°
2026-05-06 16:15 36.00608 13.75181 35892 ft 434 kts 265°
2026-05-06 16:15 36.00082 13.67764 35891 ft 434 kts 265°
2026-05-06 16:16 35.99550 13.60341 35878 ft 434 kts 265°
2026-05-06 16:16 35.99013 13.52924 35879 ft 434 kts 265°
2026-05-06 16:17 35.98471 13.45522 35846 ft 429 kts 266°
2026-05-06 16:17 35.97935 13.38320 35863 ft 415 kts 266°
2026-05-06 16:18 35.97435 13.31250 35845 ft 411 kts 269°
2026-05-06 16:18 35.97793 13.27767 35856 ft 411 kts 285°
2026-05-06 16:18 35.99023 13.24577 35853 ft 417 kts 301°
2026-05-06 16:19 36.01032 13.21956 35854 ft 429 kts 316°
2026-05-06 16:19 36.03681 13.20123 35852 ft 447 kts 333°
2026-05-06 16:19 36.06772 13.19225 35861 ft 466 kts 346°
2026-05-06 16:19 36.10015 13.18736 35847 ft 471 kts 344°
2026-05-06 16:20 36.16129 13.16331 35853 ft 452 kts 323°
2026-05-06 16:20 36.18647 13.14110 35857 ft 441 kts 312°
2026-05-06 16:20 36.20705 13.11357 35856 ft 432 kts 302°
2026-05-06 16:21 36.23406 13.04891 35852 ft 419 kts 285°
2026-05-06 16:21 36.24334 12.97865 35853 ft 417 kts 270°
2026-05-06 16:22 36.23563 12.90743 35838 ft 420 kts 256°
2026-05-06 16:22 36.21188 12.84094 35836 ft 426 kts 245°
2026-05-06 16:23 36.18234 12.77720 35841 ft 427 kts 244°
2026-05-06 16:23 36.15229 12.71400 35831 ft 424 kts 245°
2026-05-06 16:24 36.12272 12.65123 35831 ft 422 kts 245°
2026-05-06 16:24 36.09336 12.58846 35826 ft 422 kts 245°
2026-05-06 16:25 36.06521 12.52529 35820 ft 412 kts 251°
2026-05-06 16:25 36.04875 12.45903 35818 ft 399 kts 264°
2026-05-06 16:26 36.04543 12.39108 35826 ft 396 kts 270°
2026-05-06 16:26 36.04534 12.32333 35817 ft 393 kts 271°
2026-05-06 16:27 36.04551 12.25577 35818 ft 393 kts 271°
2026-05-06 16:27 36.04542 12.18821 35821 ft 393 kts 271°
2026-05-06 16:28 36.04520 12.13209 35818 ft 393 kts 271°
2026-05-06 16:28 36.04485 12.06452 35818 ft 393 kts 271°
2026-05-06 16:29 36.04447 11.99715 35815 ft 391 kts 270°
2026-05-06 16:29 36.04406 11.93008 35815 ft 390 kts 270°
2026-05-06 16:30 36.04369 11.87399 35821 ft 389 kts 270°
2026-05-06 16:30 36.04314 11.79623 35820 ft 389 kts 270°
2026-05-06 16:31 36.04263 11.72936 35823 ft 390 kts 270°
2026-05-06 16:31 36.04208 11.66241 35824 ft 389 kts 270°
2026-05-06 16:32 36.04149 11.59570 35828 ft 388 kts 270°
2026-05-06 16:32 36.04087 11.52912 35990 ft 387 kts 270°
2026-05-06 16:33 36.04054 11.49608 36370 ft 383 kts 270°
2026-05-06 16:33 36.04068 11.46321 36721 ft 381 kts 271°
2026-05-06 16:33 36.04172 11.43059 37016 ft 379 kts 272°
2026-05-06 16:34 36.04465 11.36562 37524 ft 378 kts 272°
2026-05-06 16:34 36.04605 11.33330 37762 ft 377 kts 272°
2026-05-06 16:34 36.04735 11.30077 37859 ft 380 kts 272°
2026-05-06 16:35 36.04971 11.23523 37847 ft 383 kts 272°
2026-05-06 16:35 36.05189 11.16953 37839 ft 383 kts 271°
2026-05-06 16:36 36.05402 11.10385 37837 ft 383 kts 271°
2026-05-06 16:36 36.05614 11.03816 37844 ft 383 kts 271°
2026-05-06 16:37 36.05823 10.97243 37852 ft 383 kts 271°
2026-05-06 16:37 36.06028 10.90671 37843 ft 383 kts 271°
2026-05-06 16:38 36.06230 10.84106 37863 ft 383 kts 271°
2026-05-06 16:38 36.06428 10.77532 37866 ft 382 kts 271°
2026-05-06 16:39 36.06623 10.70966 37877 ft 383 kts 271°
2026-05-06 16:39 36.06814 10.64392 37875 ft 383 kts 271°
2026-05-06 16:40 36.07001 10.57820 37873 ft 383 kts 271°
2026-05-06 16:40 36.07186 10.51227 37894 ft 385 kts 271°
2026-05-06 16:41 36.07522 10.44607 37890 ft 387 kts 276°
2026-05-06 16:41 36.08831 10.38128 37860 ft 390 kts 283°
2026-05-06 16:42 36.10507 10.31747 37849 ft 391 kts 284°
2026-05-06 16:42 36.12234 10.25376 37868 ft 391 kts 284°
2026-05-06 16:43 36.13948 10.18998 37872 ft 390 kts 284°
2026-05-06 16:43 36.15404 10.12551 37891 ft 387 kts 277°
2026-05-06 16:44 36.16294 10.05981 37874 ft 387 kts 276°
2026-05-06 16:44 36.17099 9.99389 37872 ft 387 kts 276°
2026-05-06 16:45 36.17892 9.92794 37876 ft 387 kts 276°
2026-05-06 16:45 36.18690 9.86201 37875 ft 387 kts 276°
2026-05-06 16:46 36.19488 9.79609 37887 ft 388 kts 276°
2026-05-06 16:46 36.20285 9.72997 37884 ft 389 kts 276°
2026-05-06 16:47 36.21082 9.66373 37887 ft 389 kts 276°
2026-05-06 16:47 36.21874 9.59749 37887 ft 389 kts 276°
2026-05-06 16:48 36.22663 9.53118 37890 ft 389 kts 276°
2026-05-06 16:48 36.23446 9.46495 37888 ft 389 kts 276°
2026-05-06 16:49 36.24230 9.39845 37894 ft 391 kts 275°
2026-05-06 16:49 36.25012 9.33173 37888 ft 391 kts 275°
2026-05-06 16:50 36.25919 9.26521 37884 ft 393 kts 278°
2026-05-06 16:50 36.27069 9.19903 37890 ft 393 kts 279°
2026-05-06 16:51 36.28217 9.13277 37892 ft 393 kts 278°
2026-05-06 16:51 36.29313 9.06689 37890 ft 392 kts 278°
2026-05-06 16:52 36.30400 9.00008 37894 ft 393 kts 278°
2026-05-06 16:52 36.31466 8.93419 37889 ft 392 kts 278°
2026-05-06 16:53 36.32537 8.86783 37897 ft 392 kts 278°
2026-05-06 16:53 36.33604 8.80144 37908 ft 393 kts 278°
2026-05-06 16:54 36.34671 8.73495 37907 ft 393 kts 278°
2026-05-06 16:54 36.35733 8.66851 37902 ft 393 kts 277°
2026-05-06 16:55 36.36790 8.60211 37905 ft 392 kts 277°
2026-05-06 16:55 36.37843 8.53568 37907 ft 392 kts 277°
2026-05-06 16:56 36.38891 8.46931 37906 ft 392 kts 277°
2026-05-06 16:56 36.39937 8.40285 37903 ft 392 kts 277°
2026-05-06 16:57 36.40605 8.33594 37927 ft 390 kts 271°
2026-05-06 16:57 36.40896 8.26899 37910 ft 387 kts 270°
2026-05-06 16:58 36.41127 8.20235 37909 ft 386 kts 270°
2026-05-06 16:58 36.41354 8.13573 37910 ft 387 kts 270°
2026-05-06 16:59 36.41587 8.06906 37910 ft 386 kts 270°
2026-05-06 16:59 36.41823 8.00237 37902 ft 387 kts 270°
2026-05-06 17:00 36.42054 7.93560 37905 ft 386 kts 270°
2026-05-06 17:00 36.42278 7.86894 37902 ft 387 kts 270°
2026-05-06 17:01 36.42500 7.80224 37899 ft 387 kts 270°
2026-05-06 17:01 36.42717 7.73550 37897 ft 387 kts 270°
2026-05-06 17:02 36.42932 7.66878 37898 ft 387 kts 270°
2026-05-06 17:02 36.43143 7.60203 37898 ft 387 kts 270°
2026-05-06 17:03 36.43352 7.53487 37903 ft 386 kts 269°
2026-05-06 17:03 36.43555 7.46830 37900 ft 385 kts 269°
2026-05-06 17:04 36.43754 7.40185 37895 ft 385 kts 269°
2026-05-06 17:04 36.43950 7.33545 37899 ft 385 kts 269°
2026-05-06 17:05 36.44141 7.26901 37903 ft 385 kts 269°
2026-05-06 17:05 36.44327 7.20260 37903 ft 385 kts 269°
2026-05-06 17:06 36.44512 7.13606 37902 ft 386 kts 269°
2026-05-06 17:06 36.44693 7.06958 37901 ft 386 kts 269°
2026-05-06 17:07 36.44869 7.00298 37900 ft 385 kts 269°
2026-05-06 17:07 36.45042 6.93657 37908 ft 385 kts 269°
2026-05-06 17:08 36.45183 6.88134 37911 ft 385 kts 269°
2026-05-06 17:08 36.45350 6.81497 37920 ft 384 kts 269°
2026-05-06 17:09 36.45512 6.74892 37921 ft 382 kts 269°
2026-05-06 17:09 36.45669 6.68290 37918 ft 382 kts 269°
2026-05-06 17:10 36.45824 6.61682 37924 ft 383 kts 269°
2026-05-06 17:10 36.45974 6.55079 37893 ft 383 kts 269°
2026-05-06 17:11 36.46119 6.48471 37893 ft 382 kts 269°
2026-05-06 17:11 36.46264 6.41888 37879 ft 381 kts 268°
2026-05-06 17:12 36.46404 6.35297 37891 ft 381 kts 268°
2026-05-06 17:12 36.46540 6.28716 37905 ft 381 kts 268°
2026-05-06 17:13 36.46671 6.22142 37882 ft 380 kts 268°
2026-05-06 17:13 36.46799 6.15578 37899 ft 380 kts 268°
2026-05-06 17:14 36.46923 6.09012 37896 ft 380 kts 268°
2026-05-06 17:14 36.47043 6.02449 37894 ft 380 kts 268°
2026-05-06 17:15 36.47160 5.95898 37903 ft 379 kts 268°
2026-05-06 17:15 36.47274 5.89347 37901 ft 379 kts 268°
2026-05-06 17:16 36.47388 5.82795 37911 ft 379 kts 267°
2026-05-06 17:16 36.47494 5.76242 37894 ft 379 kts 267°
2026-05-06 17:17 36.47591 5.69688 37920 ft 380 kts 267°
2026-05-06 17:17 36.47686 5.63170 37898 ft 380 kts 267°
2026-05-06 17:18 36.47781 5.56613 37901 ft 380 kts 267°
2026-05-06 17:18 36.47872 5.50056 37898 ft 379 kts 267°
2026-05-06 17:19 36.47959 5.43491 37911 ft 380 kts 267°
2026-05-06 17:19 36.48046 5.36802 37905 ft 380 kts 268°
2026-05-06 17:20 36.48158 5.30239 37925 ft 380 kts 266°
2026-05-06 17:20 36.48217 5.23666 37919 ft 381 kts 266°
2026-05-06 17:21 36.48276 5.17092 37915 ft 381 kts 266°
2026-05-06 17:21 36.48342 5.10518 37912 ft 382 kts 266°
2026-05-06 17:22 36.48408 5.03931 37905 ft 381 kts 266°
2026-05-06 17:22 36.48802 4.97341 37912 ft 385 kts 272°
2026-05-06 17:23 36.49571 4.90761 37908 ft 384 kts 273°
2026-05-06 17:23 36.50391 4.84213 37907 ft 383 kts 273°
2026-05-06 17:24 36.51206 4.77664 37897 ft 383 kts 273°
2026-05-06 17:24 36.52012 4.71108 37907 ft 384 kts 273°
2026-05-06 17:25 36.52812 4.64553 37909 ft 384 kts 273°
2026-05-06 17:25 36.53606 4.57996 37898 ft 383 kts 273°
2026-05-06 17:26 36.54395 4.51444 37901 ft 383 kts 272°
2026-05-06 17:26 36.55180 4.44900 37897 ft 383 kts 272°
2026-05-06 17:27 36.55958 4.38336 37908 ft 384 kts 272°
2026-05-06 17:27 36.56746 4.31776 37924 ft 383 kts 272°
2026-05-06 17:28 36.57529 4.25224 37905 ft 383 kts 272°
2026-05-06 17:28 36.58299 4.18665 37941 ft 384 kts 272°
2026-05-06 17:29 36.59062 4.12134 37906 ft 384 kts 272°
2026-05-06 17:29 36.59828 4.05567 37914 ft 384 kts 272°
2026-05-06 17:30 36.60586 3.98990 37911 ft 384 kts 272°
2026-05-06 17:30 36.61347 3.92419 37910 ft 384 kts 272°
2026-05-06 17:31 36.62105 3.85839 37914 ft 384 kts 272°
2026-05-06 17:31 36.62858 3.79262 37928 ft 384 kts 272°
2026-05-06 17:32 36.63607 3.72684 37913 ft 384 kts 272°
2026-05-06 17:32 36.64352 3.66090 37914 ft 385 kts 272°
2026-05-06 17:33 36.64851 3.59500 37921 ft 380 kts 265°
2026-05-06 17:33 36.64364 3.52997 37924 ft 377 kts 259°
2026-05-06 17:34 36.63558 3.46550 37930 ft 377 kts 258°
2026-05-06 17:34 36.62705 3.40124 37932 ft 376 kts 258°
2026-05-06 17:35 36.61861 3.33705 37932 ft 376 kts 258°
2026-05-06 17:35 36.61023 3.27289 37940 ft 376 kts 258°
2026-05-06 17:36 36.59763 3.17659 37936 ft 376 kts 258°
2026-05-06 17:36 36.58912 3.11235 37936 ft 376 kts 258°
2026-05-06 17:37 36.58059 3.04811 37941 ft 376 kts 258°
2026-05-06 17:37 36.57203 2.98374 37922 ft 378 kts 258°
2026-05-06 17:38 36.56346 2.91924 37920 ft 378 kts 258°
2026-05-06 17:38 36.55486 2.85473 37913 ft 378 kts 258°
2026-05-06 17:39 36.54626 2.79064 37912 ft 378 kts 258°
2026-05-06 17:39 36.53752 2.72574 37912 ft 378 kts 258°
2026-05-06 17:40 36.52879 2.66127 37923 ft 378 kts 258°
2026-05-06 17:40 36.51995 2.59634 37906 ft 383 kts 258°
2026-05-06 17:41 36.51096 2.53048 37906 ft 384 kts 258°
2026-05-06 17:41 36.50200 2.46503 37906 ft 384 kts 258°
2026-05-06 17:42 36.49300 2.39964 37911 ft 384 kts 258°
2026-05-06 17:42 36.48396 2.33415 37911 ft 385 kts 258°
2026-05-06 17:43 36.47489 2.26878 37904 ft 383 kts 258°
2026-05-06 17:43 36.46592 2.20423 37905 ft 381 kts 258°
2026-05-06 17:44 36.45683 2.13937 37902 ft 381 kts 258°
2026-05-06 17:44 36.44770 2.07443 37912 ft 382 kts 258°
2026-05-06 17:45 36.43851 2.00949 37917 ft 382 kts 258°
2026-05-06 17:45 36.42932 1.94462 37895 ft 382 kts 258°
2026-05-06 17:46 36.42161 1.89054 37907 ft 383 kts 258°
2026-05-06 17:46 36.41227 1.82507 37900 ft 387 kts 258°
2026-05-06 17:47 36.40284 1.75932 37899 ft 387 kts 258°
2026-05-06 17:47 36.39336 1.69354 37898 ft 387 kts 258°
2026-05-06 17:48 36.38387 1.62782 37894 ft 387 kts 258°
2026-05-06 17:48 36.37429 1.56214 37907 ft 387 kts 258°
2026-05-06 17:49 36.36269 1.49704 37908 ft 387 kts 251°
2026-05-06 17:49 36.34358 1.43432 37906 ft 390 kts 248°
2026-05-06 17:50 36.32279 1.37223 37912 ft 390 kts 248°
2026-05-06 17:50 36.30173 1.31032 37911 ft 390 kts 248°
2026-05-06 17:51 36.28071 1.24836 37914 ft 390 kts 248°
2026-05-06 17:51 36.25976 1.18646 37907 ft 389 kts 248°
2026-05-06 17:52 36.23882 1.12450 37887 ft 389 kts 248°
2026-05-06 17:52 36.21809 1.06326 37900 ft 383 kts 248°
2026-05-06 17:53 36.19745 1.00250 37897 ft 382 kts 248°
2026-05-06 17:53 36.17683 0.94190 37891 ft 382 kts 248°
2026-05-06 17:54 36.15616 0.88132 37888 ft 382 kts 248°
2026-05-06 17:54 36.13546 0.82073 37892 ft 383 kts 248°
2026-05-06 17:55 36.11471 0.76016 37914 ft 382 kts 248°
2026-05-06 17:55 36.09406 0.69994 37890 ft 384 kts 248°
2026-05-06 17:56 36.07318 0.63922 37895 ft 384 kts 248°
2026-05-06 17:56 36.05226 0.57853 37892 ft 384 kts 248°
2026-05-06 17:57 36.03135 0.51793 37884 ft 383 kts 247°
2026-05-06 17:57 36.01041 0.45739 37885 ft 383 kts 248°
2026-05-06 17:58 35.98942 0.39686 37882 ft 383 kts 248°
2026-05-06 17:58 35.96840 0.33636 37889 ft 384 kts 247°
2026-05-06 17:59 35.94726 0.27559 37887 ft 386 kts 247°
2026-05-06 17:59 35.92628 0.21471 37882 ft 386 kts 249°
2026-05-06 18:00 35.91258 0.15080 37888 ft 387 kts 259°
2026-05-06 18:00 35.91227 0.08418 37884 ft 395 kts 272°
2026-05-06 18:01 35.92323 0.01738 37912 ft 396 kts 272°
2026-05-06 18:01 35.92660 -0.01615 38140 ft 394 kts 270°
2026-05-06 18:01 35.92918 -0.04988 38231 ft 396 kts 269°
2026-05-06 18:02 35.93133 -0.08369 38432 ft 395 kts 269°
2026-05-06 18:02 35.93331 -0.11742 38667 ft 394 kts 269°
2026-05-06 18:02 35.93524 -0.15118 38804 ft 394 kts 269°
2026-05-06 18:02 35.93718 -0.18498 38917 ft 395 kts 269°
2026-05-06 18:03 35.93917 -0.21888 39037 ft 396 kts 269°
2026-05-06 18:03 35.94118 -0.25279 39155 ft 397 kts 269°
2026-05-06 18:03 35.94322 -0.28678 39274 ft 398 kts 269°
2026-05-06 18:03 35.94527 -0.32085 39381 ft 398 kts 269°
2026-05-06 18:04 35.94732 -0.35498 39493 ft 399 kts 269°
2026-05-06 18:04 35.94936 -0.38919 39603 ft 400 kts 269°
2026-05-06 18:04 35.95140 -0.42342 39706 ft 401 kts 269°
2026-05-06 18:04 35.95343 -0.45771 39811 ft 401 kts 269°
2026-05-06 18:05 35.95746 -0.52669 39885 ft 405 kts 269°
2026-05-06 18:05 35.96149 -0.59608 39883 ft 405 kts 269°
2026-05-06 18:06 35.96549 -0.66548 39881 ft 405 kts 269°
2026-05-06 18:06 35.96944 -0.73484 39881 ft 405 kts 269°
2026-05-06 18:07 35.97334 -0.80419 39880 ft 406 kts 269°
2026-05-06 18:07 35.97720 -0.87399 39878 ft 408 kts 269°
2026-05-06 18:08 35.98106 -0.94395 39878 ft 409 kts 269°
2026-05-06 18:08 35.98488 -1.01398 39878 ft 409 kts 269°
2026-05-06 18:09 35.98866 -1.08400 39881 ft 408 kts 269°
2026-05-06 18:09 35.99239 -1.15398 39893 ft 409 kts 269°
2026-05-06 18:10 35.99609 -1.22427 39882 ft 412 kts 269°
2026-05-06 18:10 35.99976 -1.29489 39881 ft 412 kts 269°
2026-05-06 18:11 36.00341 -1.36551 39881 ft 412 kts 269°
2026-05-06 18:11 36.00702 -1.43616 39881 ft 412 kts 269°
2026-05-06 18:12 36.01059 -1.50686 39881 ft 412 kts 269°
2026-05-06 18:12 36.01415 -1.57756 39883 ft 414 kts 269°
2026-05-06 18:13 36.01762 -1.64849 39882 ft 415 kts 269°
2026-05-06 18:13 36.02107 -1.71960 39882 ft 415 kts 269°
2026-05-06 18:14 36.02449 -1.79066 39884 ft 415 kts 269°
2026-05-06 18:14 36.02787 -1.86179 39885 ft 415 kts 269°
2026-05-06 18:15 36.03121 -1.93292 39891 ft 415 kts 269°
2026-05-06 18:15 36.03451 -2.00436 39887 ft 417 kts 269°
2026-05-06 18:16 36.03779 -2.07591 39890 ft 417 kts 269°
2026-05-06 18:16 36.04103 -2.14754 39879 ft 417 kts 269°
2026-05-06 18:17 36.04422 -2.21916 39874 ft 417 kts 269°
2026-05-06 18:17 36.04736 -2.29076 39894 ft 417 kts 269°
2026-05-06 18:18 36.05047 -2.36253 39878 ft 419 kts 268°
2026-05-06 18:18 36.05354 -2.43463 39880 ft 420 kts 268°
2026-05-06 18:19 36.05659 -2.50671 39884 ft 420 kts 268°
2026-05-06 18:19 36.05956 -2.57826 39879 ft 420 kts 268°
2026-05-06 18:20 36.06251 -2.65034 39876 ft 420 kts 268°
2026-05-06 18:20 36.06544 -2.72306 39879 ft 422 kts 268°
2026-05-06 18:21 36.06829 -2.79508 39885 ft 423 kts 268°
2026-05-06 18:21 36.07114 -2.86787 39881 ft 424 kts 268°
2026-05-06 18:22 36.07395 -2.94052 39885 ft 423 kts 268°
2026-05-06 18:22 36.07671 -3.01327 39881 ft 423 kts 268°
2026-05-06 18:23 36.07942 -3.08600 39882 ft 425 kts 268°
2026-05-06 18:23 36.08209 -3.15917 39878 ft 427 kts 268°
2026-05-06 18:24 36.08474 -3.23258 39881 ft 428 kts 268°
2026-05-06 18:24 36.08736 -3.30608 39882 ft 427 kts 268°
2026-05-06 18:25 36.08992 -3.37948 39881 ft 427 kts 268°
2026-05-06 18:25 36.09244 -3.45298 39888 ft 428 kts 268°
2026-05-06 18:26 36.09495 -3.52675 39880 ft 431 kts 268°
2026-05-06 18:26 36.09737 -3.60080 39880 ft 431 kts 268°
2026-05-06 18:27 36.09976 -3.67488 39879 ft 431 kts 268°
2026-05-06 18:27 36.10211 -3.74880 39877 ft 431 kts 268°
2026-05-06 18:28 36.10434 -3.82027 39885 ft 431 kts 268°
2026-05-06 18:28 36.10659 -3.89418 39879 ft 434 kts 269°
2026-05-06 18:29 36.10882 -3.96886 39878 ft 435 kts 269°
2026-05-06 18:29 36.11066 -4.03155 39878 ft 435 kts 269°
2026-05-06 18:30 36.11282 -4.10633 39882 ft 435 kts 268°
2026-05-06 18:30 36.11493 -4.18103 39877 ft 435 kts 268°
2026-05-06 18:31 36.11699 -4.25586 39874 ft 435 kts 268°
2026-05-06 18:31 36.11900 -4.33064 39874 ft 435 kts 268°
2026-05-06 18:32 36.12091 -4.40336 39877 ft 435 kts 268°
2026-05-06 18:32 36.12280 -4.47806 39871 ft 435 kts 268°
2026-05-06 18:33 36.12470 -4.55283 39869 ft 435 kts 268°
2026-05-06 18:33 36.12653 -4.62771 39871 ft 437 kts 269°
2026-05-06 18:34 36.12831 -4.70248 39873 ft 439 kts 269°
2026-05-06 18:34 36.13007 -4.77790 39870 ft 439 kts 269°
2026-05-06 18:35 36.13129 -4.85339 39869 ft 438 kts 265°
2026-05-06 18:35 36.12472 -4.92786 39869 ft 435 kts 259°
2026-05-06 18:36 36.11427 -5.00168 39867 ft 436 kts 258°
2026-05-06 18:36 36.10313 -5.07562 39878 ft 438 kts 258°
2026-05-06 18:37 36.09233 -5.14881 39881 ft 438 kts 258°
2026-05-06 18:37 36.08161 -5.22242 39883 ft 438 kts 258°
2026-05-06 18:38 36.07076 -5.29705 39884 ft 438 kts 258°
2026-05-06 18:38 36.06000 -5.37066 39884 ft 439 kts 258°
2026-05-06 18:39 36.04908 -5.44507 39884 ft 440 kts 258°
2026-05-06 18:40 36.03260 -5.55680 39885 ft 441 kts 258°
2026-05-06 18:40 36.02156 -5.63123 39891 ft 441 kts 258°
2026-05-06 18:41 36.01046 -5.70570 39898 ft 441 kts 258°
2026-05-06 18:41 35.99929 -5.78022 39898 ft 442 kts 258°
2026-05-06 18:42 35.98805 -5.85503 39901 ft 445 kts 258°
2026-05-06 18:42 35.97646 -5.93171 39902 ft 451 kts 258°
2026-05-06 18:43 35.96489 -6.00804 39902 ft 454 kts 258°
2026-05-06 18:43 35.95323 -6.08456 39901 ft 454 kts 258°
2026-05-06 18:44 35.94152 -6.16121 39900 ft 455 kts 258°
2026-05-06 18:44 35.92977 -6.23784 39906 ft 455 kts 258°
2026-05-06 18:45 35.91791 -6.31445 39902 ft 455 kts 258°
2026-05-06 18:45 35.90601 -6.39108 39905 ft 455 kts 258°
2026-05-06 18:46 35.89404 -6.46816 39916 ft 455 kts 258°
2026-05-06 18:46 35.88210 -6.54429 39907 ft 455 kts 258°
2026-05-06 18:47 35.86996 -6.62142 39905 ft 455 kts 258°
2026-05-06 18:47 35.85791 -6.69802 39908 ft 455 kts 258°
2026-05-06 18:48 35.84584 -6.77414 39910 ft 455 kts 258°
2026-05-06 18:48 35.83365 -6.85072 39914 ft 455 kts 258°
2026-05-06 18:49 35.82141 -6.92731 39911 ft 456 kts 258°
2026-05-06 18:49 35.80909 -7.00389 39914 ft 456 kts 258°
2026-05-06 18:50 35.79677 -7.08046 39918 ft 456 kts 258°
2026-05-06 18:50 35.78435 -7.15700 39917 ft 456 kts 258°
2026-05-06 18:51 35.77188 -7.23356 39918 ft 456 kts 258°
2026-05-06 18:51 35.75936 -7.31018 39919 ft 457 kts 257°
2026-05-06 18:52 35.74679 -7.38683 39920 ft 457 kts 257°
2026-05-06 18:52 35.73419 -7.46341 39922 ft 457 kts 257°
2026-05-06 18:53 35.72152 -7.53999 39921 ft 457 kts 257°
2026-05-06 18:53 35.70881 -7.61656 39933 ft 457 kts 257°
2026-05-06 18:54 35.69605 -7.69335 39927 ft 458 kts 257°
2026-05-06 18:54 35.68316 -7.77018 39924 ft 459 kts 257°
2026-05-06 18:55 35.67023 -7.84701 39925 ft 459 kts 257°
2026-05-06 18:55 35.65726 -7.92380 39930 ft 459 kts 257°
2026-05-06 18:56 35.64425 -8.00056 39930 ft 459 kts 257°
2026-05-06 18:56 35.63118 -8.07737 39934 ft 459 kts 257°
2026-05-06 18:57 35.61815 -8.15359 39937 ft 459 kts 257°
2026-05-06 18:57 35.60500 -8.23026 39936 ft 459 kts 257°
2026-05-06 18:58 35.59178 -8.30699 39937 ft 459 kts 257°
2026-05-06 18:58 35.57851 -8.38369 39940 ft 459 kts 257°
2026-05-06 18:59 35.56516 -8.46053 39940 ft 460 kts 257°
2026-05-06 18:59 35.55175 -8.53753 39946 ft 462 kts 257°
2026-05-06 19:00 35.53823 -8.61474 39948 ft 463 kts 257°
2026-05-06 19:00 35.52465 -8.69203 39953 ft 463 kts 257°
2026-05-06 19:01 35.51101 -8.76933 39953 ft 464 kts 258°
2026-05-06 19:01 35.49728 -8.84682 39956 ft 465 kts 258°
2026-05-06 19:02 35.48350 -8.92435 39956 ft 465 kts 258°
2026-05-06 19:02 35.46968 -9.00180 39957 ft 465 kts 257°
2026-05-06 19:03 35.45580 -9.07926 39962 ft 465 kts 257°
2026-05-06 19:03 35.44184 -9.15676 39967 ft 466 kts 258°
2026-05-06 19:04 35.42784 -9.23432 39964 ft 466 kts 258°
2026-05-06 19:04 35.41376 -9.31197 39967 ft 466 kts 258°
2026-05-06 19:05 35.39965 -9.38951 39972 ft 466 kts 258°
2026-05-06 19:05 35.38549 -9.46698 39965 ft 466 kts 258°
2026-05-06 19:06 35.37125 -9.54455 39968 ft 466 kts 258°
2026-05-06 19:06 35.35699 -9.62203 39974 ft 466 kts 258°
2026-05-06 19:07 35.34268 -9.69945 39981 ft 466 kts 258°
2026-05-06 19:07 35.32830 -9.77696 39979 ft 466 kts 258°
2026-05-06 19:08 35.31386 -9.85444 39972 ft 467 kts 258°
2026-05-06 19:08 35.30182 -9.91887 39979 ft 467 kts 258°
2026-05-06 19:09 35.28728 -9.99645 39987 ft 468 kts 258°
2026-05-06 19:09 35.27268 -10.07401 39985 ft 468 kts 258°
2026-05-06 19:10 35.25802 -10.15158 39989 ft 468 kts 258°
2026-05-06 19:10 35.24331 -10.22912 39984 ft 468 kts 258°
2026-05-06 19:11 35.22854 -10.30673 39995 ft 469 kts 258°
2026-05-06 19:11 35.21370 -10.38440 39995 ft 469 kts 258°
2026-05-06 19:12 35.19880 -10.46207 39997 ft 469 kts 258°
2026-05-06 19:12 35.18386 -10.53972 39991 ft 469 kts 258°
2026-05-06 19:13 35.16884 -10.61742 40001 ft 470 kts 258°
2026-05-06 19:13 35.15375 -10.69526 40002 ft 471 kts 258°
2026-05-06 19:14 35.13858 -10.77320 40005 ft 472 kts 258°
2026-05-06 19:14 35.12336 -10.85110 40004 ft 472 kts 258°
2026-05-06 19:15 35.10809 -10.92897 40010 ft 472 kts 258°
2026-05-06 19:15 35.09274 -11.00697 40010 ft 473 kts 258°
2026-05-06 19:16 35.07732 -11.08510 40012 ft 474 kts 258°
2026-05-06 19:16 35.06181 -11.16333 40012 ft 474 kts 258°
2026-05-06 19:17 35.04625 -11.24155 40013 ft 474 kts 258°
2026-05-06 19:17 35.03065 -11.31971 40010 ft 474 kts 259°
2026-05-06 19:18 35.01495 -11.39801 40016 ft 477 kts 259°
2026-05-06 19:18 34.99924 -11.47621 40012 ft 478 kts 259°
2026-05-06 19:19 34.98338 -11.55480 40011 ft 478 kts 259°
2026-05-06 19:19 34.96745 -11.63345 40018 ft 478 kts 259°
2026-05-06 19:20 34.94712 -11.71076 40018 ft 480 kts 253°
2026-05-06 19:20 34.92317 -11.78678 40008 ft 481 kts 251°
2026-05-06 19:21 34.89851 -11.86244 40024 ft 480 kts 251°
2026-05-06 19:21 34.87396 -11.93802 40026 ft 480 kts 251°
2026-05-06 19:22 34.84951 -12.01361 40025 ft 480 kts 251°
2026-05-06 19:22 34.82507 -12.08930 40026 ft 482 kts 252°
2026-05-06 19:23 34.80048 -12.16535 40028 ft 484 kts 252°
2026-05-06 19:23 34.77572 -12.24162 40029 ft 485 kts 252°
2026-05-06 19:24 34.75091 -12.31784 40031 ft 485 kts 252°
2026-05-06 19:24 34.72605 -12.39399 40036 ft 485 kts 252°
2026-05-06 19:25 34.70113 -12.47020 40033 ft 486 kts 252°
2026-05-06 19:25 34.67607 -12.54662 40039 ft 487 kts 252°
2026-05-06 19:26 34.65092 -12.62310 40037 ft 488 kts 252°
2026-05-06 19:26 34.62587 -12.69908 40042 ft 488 kts 252°
2026-05-06 19:27 34.60047 -12.77594 40035 ft 488 kts 253°
2026-05-06 19:27 34.57517 -12.85229 40040 ft 488 kts 253°
2026-05-06 19:28 34.54985 -12.92858 40048 ft 488 kts 253°
2026-05-06 19:28 34.52460 -13.00444 40049 ft 488 kts 252°
2026-05-06 19:29 34.49909 -13.08086 40050 ft 489 kts 252°
2026-05-06 19:29 34.47337 -13.15771 40046 ft 488 kts 253°
2026-05-06 19:30 34.44786 -13.23374 40054 ft 487 kts 253°
2026-05-06 19:30 34.42236 -13.30962 40056 ft 486 kts 253°
2026-05-06 19:31 34.39680 -13.38548 40058 ft 486 kts 253°
2026-05-06 19:31 34.35836 -13.49906 40042 ft 487 kts 253°
2026-05-06 19:32 34.32771 -13.57249 40058 ft 490 kts 247°
2026-05-06 19:32 34.29432 -13.64431 40061 ft 490 kts 246°
2026-05-06 19:33 34.26040 -13.71580 40059 ft 490 kts 246°
2026-05-06 19:33 34.22654 -13.78736 40067 ft 490 kts 246°
2026-05-06 19:34 34.19280 -13.85889 40047 ft 490 kts 246°
2026-05-06 19:34 34.15911 -13.93022 40066 ft 488 kts 246°
2026-05-06 19:35 34.12548 -14.00132 40069 ft 487 kts 246°
2026-05-06 19:35 34.09188 -14.07222 40069 ft 487 kts 246°
2026-05-06 19:36 34.05821 -14.14315 40069 ft 487 kts 246°
2026-05-06 19:36 34.02470 -14.21356 40070 ft 487 kts 246°
2026-05-06 19:37 33.99100 -14.28421 40072 ft 485 kts 246°
2026-05-06 19:37 33.96280 -14.34324 40073 ft 485 kts 246°
2026-05-06 19:38 33.92370 -14.42502 40078 ft 485 kts 246°
2026-05-06 19:38 33.89002 -14.49532 40077 ft 485 kts 246°
2026-05-06 19:39 33.85645 -14.56501 40069 ft 475 kts 246°
2026-05-06 19:39 33.82349 -14.63338 40078 ft 470 kts 247°
2026-05-06 19:40 33.79073 -14.70144 40082 ft 470 kts 247°
2026-05-06 19:40 33.75794 -14.76933 40084 ft 470 kts 247°
2026-05-06 19:41 33.74161 -14.80303 39708 ft 465 kts 247°
2026-05-06 19:41 33.72530 -14.83665 38946 ft 467 kts 248°
2026-05-06 19:41 33.70890 -14.87052 38037 ft 470 kts 248°
2026-05-06 19:41 33.69241 -14.90460 37046 ft 474 kts 248°
2026-05-06 19:42 33.67577 -14.93898 36038 ft 479 kts 248°
2026-05-06 19:42 33.65897 -14.97365 35040 ft 483 kts 247°
2026-05-06 19:42 33.64193 -15.00872 34061 ft 488 kts 247°
2026-05-06 19:42 33.62473 -15.04407 32966 ft 493 kts 246°
2026-05-06 19:43 33.60740 -15.07958 32052 ft 494 kts 246°
2026-05-06 19:43 33.59001 -15.11510 31223 ft 494 kts 246°
2026-05-06 19:43 33.57264 -15.15056 30400 ft 493 kts 246°
2026-05-06 19:43 33.55527 -15.18601 29496 ft 493 kts 246°
2026-05-06 19:44 33.53796 -15.22129 28842 ft 488 kts 246°
2026-05-06 19:44 33.52082 -15.25616 28193 ft 482 kts 246°
2026-05-06 19:44 33.50390 -15.29059 27592 ft 477 kts 246°
2026-05-06 19:44 33.48717 -15.32462 26979 ft 472 kts 246°
2026-05-06 19:45 33.47060 -15.35832 26387 ft 467 kts 246°
2026-05-06 19:45 33.45418 -15.39170 25789 ft 463 kts 245°
2026-05-06 19:45 33.43792 -15.42474 25194 ft 459 kts 245°
2026-05-06 19:45 33.42179 -15.45750 24606 ft 455 kts 245°
2026-05-06 19:46 33.40601 -15.48951 24031 ft 451 kts 245°
2026-05-06 19:46 33.39016 -15.52164 23418 ft 447 kts 245°
2026-05-06 19:46 33.37439 -15.55356 22806 ft 443 kts 245°
2026-05-06 19:46 33.35881 -15.58506 22205 ft 437 kts 245°
2026-05-06 19:47 33.34340 -15.61619 21657 ft 432 kts 245°
2026-05-06 19:47 33.32821 -15.64689 21081 ft 427 kts 245°
2026-05-06 19:47 33.31318 -15.67726 20559 ft 422 kts 244°
2026-05-06 19:47 33.29830 -15.70725 19988 ft 417 kts 244°
2026-05-06 19:48 33.28358 -15.73687 19431 ft 413 kts 244°
2026-05-06 19:48 33.26902 -15.76617 18869 ft 408 kts 244°
2026-05-06 19:48 33.25460 -15.79514 18315 ft 404 kts 244°
2026-05-06 19:48 33.24034 -15.82378 17695 ft 399 kts 243°
2026-05-06 19:49 33.22621 -15.85213 17136 ft 395 kts 243°
2026-05-06 19:49 33.21224 -15.88014 16578 ft 391 kts 243°
2026-05-06 19:49 33.19837 -15.90795 16021 ft 388 kts 243°
2026-05-06 19:49 33.18461 -15.93552 15474 ft 385 kts 243°
2026-05-06 19:50 33.17095 -15.96286 14903 ft 382 kts 243°
2026-05-06 19:50 33.15740 -15.98998 14358 ft 379 kts 242°
2026-05-06 19:50 33.14397 -16.01681 13785 ft 375 kts 242°
2026-05-06 19:50 33.13063 -16.04343 13199 ft 372 kts 242°
2026-05-06 19:51 33.11741 -16.06980 12647 ft 369 kts 242°
2026-05-06 19:51 33.10430 -16.09594 12089 ft 366 kts 242°
2026-05-06 19:51 33.09126 -16.12190 11637 ft 361 kts 242°
2026-05-06 19:51 33.07866 -16.14693 11501 ft 343 kts 242°
2026-05-06 19:52 33.06664 -16.17074 11367 ft 327 kts 242°
2026-05-06 19:52 33.05518 -16.19343 11237 ft 312 kts 242°
2026-05-06 19:52 33.04426 -16.21507 11108 ft 298 kts 243°
2026-05-06 19:52 33.03383 -16.23577 10974 ft 285 kts 243°
2026-05-06 19:53 33.02718 -16.24897 10893 ft 277 kts 243°
2026-05-06 19:53 33.01738 -16.26844 10750 ft 273 kts 243°
2026-05-06 19:53 33.00763 -16.28788 10589 ft 273 kts 243°
2026-05-06 19:53 32.99479 -16.31346 10215 ft 271 kts 243°
2026-05-06 19:54 32.98509 -16.33275 9933 ft 277 kts 243°
2026-05-06 19:54 32.97498 -16.35291 9812 ft 288 kts 242°
2026-05-06 19:54 32.96806 -16.36666 9654 ft 285 kts 242°
2026-05-06 19:54 32.95784 -16.38687 9135 ft 285 kts 242°
2026-05-06 19:55 32.94759 -16.40710 8760 ft 285 kts 242°
2026-05-06 19:55 32.93737 -16.42722 8445 ft 284 kts 242°
2026-05-06 19:55 32.92729 -16.44705 8146 ft 283 kts 242°
2026-05-06 19:55 32.91702 -16.46729 7824 ft 282 kts 242°
2026-05-06 19:56 32.90706 -16.48694 7527 ft 280 kts 242°
2026-05-06 19:56 32.89689 -16.50702 7211 ft 279 kts 242°
2026-05-06 19:56 32.88687 -16.52678 6921 ft 279 kts 242°
2026-05-06 19:56 32.87701 -16.54618 6622 ft 278 kts 242°
2026-05-06 19:57 32.86703 -16.56581 6308 ft 277 kts 242°
2026-05-06 19:57 32.85663 -16.58509 5998 ft 278 kts 236°
2026-05-06 19:57 32.84245 -16.60072 5643 ft 280 kts 217°
2026-05-06 19:57 32.82618 -16.61336 5286 ft 279 kts 214°
2026-05-06 19:58 32.80973 -16.62558 4965 ft 279 kts 214°
2026-05-06 19:58 32.79337 -16.63782 4660 ft 277 kts 215°
2026-05-06 19:58 32.77707 -16.65012 4360 ft 276 kts 214°
2026-05-06 19:58 32.76088 -16.66236 4034 ft 275 kts 215°
2026-05-06 19:59 32.74467 -16.67465 3748 ft 277 kts 215°
2026-05-06 19:59 32.72860 -16.68681 3556 ft 268 kts 215°
2026-05-06 19:59 32.71335 -16.69838 3440 ft 253 kts 215°
2026-05-06 19:59 32.69892 -16.70935 3360 ft 239 kts 214°
2026-05-06 20:00 32.68526 -16.71972 3236 ft 227 kts 214°
2026-05-06 20:00 32.67233 -16.72953 3142 ft 214 kts 214°
2026-05-06 20:00 32.66018 -16.73874 3031 ft 200 kts 214°
2026-05-06 20:00 32.64886 -16.74731 2907 ft 187 kts 215°
2026-05-06 20:01 32.63815 -16.75545 2723 ft 178 kts 214°
2026-05-06 20:01 32.62796 -16.76319 2560 ft 169 kts 214°
2026-05-06 20:01 32.61894 -16.77157 2369 ft 162 kts 231°
2026-05-06 20:01 32.61541 -16.78354 2073 ft 154 kts 276°
2026-05-06 20:02 32.61980 -16.79441 1795 ft 147 kts 320°
2026-05-06 20:02 32.62836 -16.80049 1540 ft 140 kts 338°
2026-05-06 20:02 32.63756 -16.80352 1354 ft 136 kts 352°
2026-05-06 20:02 32.64702 -16.80399 1160 ft 136 kts
2026-05-06 20:03 32.65656 -16.80349 876 ft 137 kts
2026-05-06 20:03 32.66587 -16.80203 626 ft 135 kts 13°
2026-05-06 20:03 32.67472 -16.79838 522 ft 135 kts 23°
2026-05-06 20:03 32.68264 -16.79211 392 ft 140 kts 39°
2026-05-06 20:04 32.68953 -16.78413 181 ft 135 kts 40°
2026-05-06 20:04 32.69563 -16.77710 181 ft 95 kts 44°
2026-05-06 20:04 32.69882 -16.77337 205 ft 39 kts 45°
2026-05-06 20:04 32.69961 -16.77220 204 ft 11 kts 88°
2026-05-06 20:05 32.69901 -16.77177 202 ft 13 kts 172°
2026-05-06 20:05 32.69804 -16.77220 203 ft 18 kts 221°
2026-05-06 20:05 32.69701 -16.77348 176 ft 23 kts 226°
2026-05-06 20:05 32.69617 -16.77446 175 ft 9 kts 206°
2026-05-06 20:06 32.69600 -16.77446 175 ft 3 kts 174°
2026-05-06 20:06 32.69576 -16.77429 175 ft 5 kts 142°
2026-05-06 20:06 32.69553 -16.77404 175 ft 1 kts 137°
2026-05-06 20:06 32.69545 -16.77395 175 ft 0 kts 139°